Location: Sulphur Springs (historical)
(38.1246°N, 122.1900°W)
Time: 05:06:41
(UTC+00:00)

COSMO-SKYMED 1 - Pass Details

Date: 29 October 2020
Orbit: 621 x 623 km, 97.9° (Epoch: 29 November)

Event Time Altitude Azimuth Distance (km) Brightness Sun altitude
Rises 13:20:54 0° 165° (SSE) 2,889 6.3 -14.6°
Reaches altitude 10° 13:23:04 10° 164° (SSE) 1,987 5.4 -14.1°
Maximum altitude 13:27:24 85° 76° (ENE) 631 2.6 -13.3°
Drops below altitude 10° 13:31:46 10° 349° (N) 2,001 5.0 -12.4°
Sets 13:33:58 0° 349° (N) 2,912 5.8 -12.0°
